Fitchburg, MA

9:00 AM EDT on May 24, 2017 (GMT -0400)
Fitchburg Municipal

Weather History for KFIT - April, 2013

Change the Weather History Date:

Monday, April 8, 2013

  Actual Average (KORH) Record (KORH)
Temperature  
Mean Temperature 54 °F -  
Max Temperature 66 °F 49 °F 85 °F (1929)
Min Temperature 42 °F 31 °F 17 °F (1972)
Degree Days  
Heating Degree Days 11    
Growing Degree Days 4 (Base 50)    
Moisture  
Dew Point 36 °F    
Average Humidity 55    
Maximum Humidity 85    
Minimum Humidity 24    
Precipitation  
Precipitation 0.00 in - - ()
Sea Level Pressure  
Sea Level Pressure 30.03 in    
Wind  
Wind Speed 5 mph (WNW)    
Max Wind Speed 15 mph    
Max Gust Speed 23 mph    
Visibility 10 miles    
Events      
Averages and records for this station are not official NWS values.
T = Trace of Precipitation, MM = Missing Value Source: NWS Daily Summary

Daily Weather History Graph

Daily Weather History Graph

Search for Another Location

Airport or City:

Trip Planner

Search our weather history database for the weather conditions in past years. The results will help you decide how hot, cold, wet, or windy it might be!

Date:

Astronomy

Apr. 08, 2013 Rise Set
Actual Time 6:17 AM EDT 7:21 PM EDT
Civil Twilight 5:48 AM EDT 7:50 PM EDT
Nautical Twilight 5:13 AM EDT 8:24 PM EDT
Astronomical Twilight 4:37 AM EDT 9:00 PM EDT
Moon 5:07 AM EDT (4/8) 5:51 PM EDT (4/8)
Length of Visible Light 14h 01m
Length of Day
13h 04m
Waning Crescent, 3% of the Moon is Illuminated
Apr 8
Waning Crescent
Apr 10
New
Apr 18
First Quarter
Apr 25
Full
May 2
Last Quarter

Hourly Weather History & Observations

Time (EDT) Temp. Windchill Dew Point Humidity Pressure Visibility Wind Dir Wind Speed Gust Speed Precip Events Conditions
12:52 AM 46.9 °F - 39.9 °F 77% 29.99 in 10.0 mi SW 6.9 mph - N/A   Clear
1:52 AM 46.9 °F - 41.0 °F 80% 29.98 in 10.0 mi SSW 4.6 mph - N/A   Clear
2:52 AM 42.1 °F - 37.9 °F 85% 29.97 in 10.0 mi Calm Calm - N/A   Clear
3:52 AM 45.0 °F - 39.9 °F 82% 29.96 in 10.0 mi Calm Calm - N/A   Clear
4:52 AM 44.1 °F 41.5 °F 39.9 °F 85% 29.97 in 10.0 mi NNW 4.6 mph - N/A   Clear
5:52 AM 44.1 °F 40.8 °F 39.9 °F 85% 29.97 in 10.0 mi WNW 5.8 mph - N/A   Clear
6:52 AM 46.0 °F 39.6 °F 39.0 °F 76% 29.98 in 10.0 mi WNW 15.0 mph 23.0 mph N/A   Clear
7:52 AM 48.0 °F - 37.9 °F 68% 30.01 in 10.0 mi NW 10.4 mph 19.6 mph N/A   Clear
8:52 AM 51.1 °F - 37.0 °F 59% 30.02 in 10.0 mi NW 8.1 mph - N/A   Clear
9:52 AM 52.0 °F - 36.0 °F 54% 30.04 in 10.0 mi WNW 12.7 mph - N/A   Clear
10:52 AM 53.1 °F - 36.0 °F 52% 30.06 in 10.0 mi NW 9.2 mph - N/A   Clear
11:52 AM 57.0 °F - 35.1 °F 44% 30.07 in 10.0 mi Variable 5.8 mph - N/A   Clear
12:52 PM 57.9 °F - 34.0 °F 41% 30.06 in 10.0 mi Calm Calm - N/A   Clear
1:52 PM 61.0 °F - 33.1 °F 35% 30.06 in 10.0 mi Calm Calm - N/A   Clear
2:52 PM 64.0 °F - 30.9 °F 29% 30.05 in 10.0 mi West 6.9 mph - N/A   Clear
3:52 PM 64.9 °F - 30.0 °F 27% 30.03 in 10.0 mi North 4.6 mph - N/A   Clear
4:52 PM 66.0 °F - 28.0 °F 24% 30.03 in 10.0 mi WNW 5.8 mph - N/A   Clear
5:52 PM 64.9 °F - 27.0 °F 24% 30.03 in 10.0 mi SSW 3.5 mph - N/A   Clear
6:52 PM 62.1 °F - 28.0 °F 28% 30.04 in 10.0 mi Calm Calm - N/A   Clear
7:52 PM 55.9 °F - 33.1 °F 42% 30.06 in 10.0 mi Calm Calm - N/A   Clear
8:52 PM 57.0 °F - 36.0 °F 45% 30.09 in 10.0 mi SE 4.6 mph - N/A   Clear
9:52 PM 54.0 °F - 37.9 °F 55% 30.09 in 10.0 mi Calm Calm - N/A   Clear
10:52 PM 53.1 °F - 37.9 °F 57% 30.08 in 10.0 mi Calm Calm - N/A   Clear
11:52 PM 51.1 °F - 37.9 °F 61% 30.07 in 10.0 mi Calm Calm - N/A   Mostly Cloudy